Weather in Nemnyuga

Russia / Arkhangel'skaya Oblast'     63°58′36″N   44°24′48″E
temp.,
°C
wind,
m/s
gust,
m/s
humid.,
%
clouds,
%
prec.,
mm/h
press.,
hPa
HPBL,
m
3 march, wed
wed300:00−5wnw61487100 0.1 995919
03:00−5wnw61388100 0.3 996910
06:00−6wnw61391100 0.2 995749
09:00−6wnw51193100 0.6 996646
12:00−5wnw5992100 0.4 995638
15:00−5wnw5991100 0.8 995684
18:00−6wnw4992100 0.2 994718
21:00−8wnw3796100 0.4 994301
4 march, thu
thu400:00−11wnw259797 0.2 992138
03:00−13nnw379598 0.5 993292
06:00−15nnw379691 0.1 993302
09:00−15nnw379392 0.2 994442
12:00−14nnw4689100 0.1 994608
15:00−14nnw3690100 0.2 995599
18:00−16nnw3795100 0.1 996408
21:00−19nw269891 0.1 997141
5 march, fri
fri500:00−20nw249983 0.0 998132
03:00−19nw259889 0.1 999184
06:00−19nw259893 0.1 1000148
09:00−17n359387 0.2 1002381
12:00−16nnw3591100 0.1 1003448
15:00−15nnw3590100 0.3 1005588
18:00−17nnw249699 0.1 1006112
21:00−21nnw229797 0.1 100720
6 march, sat
sat600:00−21nnw1299100 0.1 100834
03:00−23nw229997 0.1 100920
06:00−25nw129981 0.0 100920
09:00−23sw019756 0.0 100840
12:00−18sw228747 0.0 1008326
15:00−16ssw239172 0.1 1006368
18:00−16sse2497100 0.1 100589
21:00−17s2398100 0.3 100360
7 march, sun
sun700:00−17sse249896 0.1 100192
03:00−18se359893 0.2 1000122
06:00−20se379886 0.0 998141
09:00−17ese479485 0.0 997244
12:00−13ese4891100 0.0 997349
15:00−11e4887100 0.0 997548
18:00−14ene3893100 0.0 998277
21:00−15ne4795100 0.3 999308